owner,sensor,date,latitude,longitude,air_temperature,qcFlag 
DISL,ioos:station:DISL:KATA:1,2017-12-01T00:00:00Z,30.2583,-88.2131,18.7,11111222 
DISL,ioos:station:DISL:KATA:1,2017-12-01T00:30:00Z,30.2583,-88.2131,18.84,1111122 
DISL,ioos:station:DISL:KATA:1,2017-12-01T01:00:00Z,30.2583,-88.2131,19.0,11111222 
DISL,ioos:station:DISL:KATA:1,2017-12-01T01:30:00Z,30.2583,-88.2131,19.18,1111122 
DISL,ioos:station:DISL:KATA:1,2017-12-01T02:00:00Z,30.2583,-88.2131,19.1,11111222 
DISL,ioos:station:DISL:KATA:1,2017-12-01T02:30:00Z,30.2583,-88.2131,19.01,1111122 
DISL,ioos:station:DISL:KATA:1,2017-12-01T03:00:00Z,30.2583,-88.2131,18.6,11111222 
DISL,ioos:station:DISL:KATA:1,2017-12-01T03:30:00Z,30.2583,-88.2131,18.4,1111122 
DISL,ioos:station:DISL:KATA:1,2017-12-01T04:00:00Z,30.2583,-88.2131,18.1,11111222 
DISL,ioos:station:DISL:KATA:1,2017-12-01T04:30:00Z,30.2583,-88.2131,17.89,1111122 
DISL,ioos:station:DISL:KATA:1,2017-12-01T05:00:00Z,30.2583,-88.2131,17.9,11111222 
DISL,ioos:station:DISL:KATA:1,2017-12-01T05:30:00Z,30.2583,-88.2131,17.53,1111122 
DISL,ioos:station:DISL:KATA:1,2017-12-01T06:00:00Z,30.2583,-88.2131,17.9,11111222 
DISL,ioos:station:DISL:KATA:1,2017-12-01T06:30:00Z,30.2583,-88.2131,17.86,1111122 
DISL,ioos:station:DISL:KATA:1,2017-12-01T07:00:00Z,30.2583,-88.2131,17.7,11111222 
DISL,ioos:station:DISL:KATA:1,2017-12-01T07:30:00Z,30.2583,-88.2131,17.8,1111122 
DISL,ioos:station:DISL:KATA:1,2017-12-01T08:00:00Z,30.2583,-88.2131,17.6,11111222 
DISL,ioos:station:DISL:KATA:1,2017-12-01T08:30:00Z,30.2583,-88.2131,17.66,1111122 
DISL,ioos:station:DISL:KATA:1,2017-12-01T09:00:00Z,30.2583,-88.2131,17.4,11111222 
DISL,ioos:station:DISL:KATA:1,2017-12-01T09:30:00Z,30.2583,-88.2131,17.26,1111122 
DISL,ioos:station:DISL:KATA:1,2017-12-01T10:00:00Z,30.2583,-88.2131,17.4,11111222 
DISL,ioos:station:DISL:KATA:1,2017-12-01T10:30:00Z,30.2583,-88.2131,17.4,1111122 
DISL,ioos:station:DISL:KATA:1,2017-12-01T11:00:00Z,30.2583,-88.2131,17.2,11111222 
DISL,ioos:station:DISL:KATA:1,2017-12-01T11:30:00Z,30.2583,-88.2131,17.23,1111122 
DISL,ioos:station:DISL:KATA:1,2017-12-01T12:00:00Z,30.2583,-88.2131,17.3,11111222 
DISL,ioos:station:DISL:KATA:1,2017-12-01T12:30:00Z,30.2583,-88.2131,17.33,1111122 
DISL,ioos:station:DISL:KATA:1,2017-12-01T13:00:00Z,30.2583,-88.2131,17.4,11111222 
DISL,ioos:station:DISL:KATA:1,2017-12-01T13:30:00Z,30.2583,-88.2131,17.23,1111122 
DISL,ioos:station:DISL:KATA:1,2017-12-01T14:00:00Z,30.2583,-88.2131,17.3,11111222 
DISL,ioos:station:DISL:KATA:1,2017-12-01T14:30:00Z,30.2583,-88.2131,17.33,1111122 
DISL,ioos:station:DISL:KATA:1,2017-12-01T15:00:00Z,30.2583,-88.2131,17.3,11111222 
DISL,ioos:station:DISL:KATA:1,2017-12-01T15:30:00Z,30.2583,-88.2131,17.39,1111122 
DISL,ioos:station:DISL:KATA:1,2017-12-01T16:00:00Z,30.2583,-88.2131,17.3,11111222 
DISL,ioos:station:DISL:KATA:1,2017-12-01T16:30:00Z,30.2583,-88.2131,17.35,1111122 
DISL,ioos:station:DISL:KATA:1,2017-12-01T17:00:00Z,30.2583,-88.2131,17.7,11111222 
DISL,ioos:station:DISL:KATA:1,2017-12-01T17:30:00Z,30.2583,-88.2131,17.79,1111122 
DISL,ioos:station:DISL:KATA:1,2017-12-01T18:00:00Z,30.2583,-88.2131,17.5,11111222 
DISL,ioos:station:DISL:KATA:1,2017-12-01T18:30:00Z,30.2583,-88.2131,17.64,1111122 
DISL,ioos:station:DISL:KATA:1,2017-12-01T19:00:00Z,30.2583,-88.2131,17.7,11111222 
DISL,ioos:station:DISL:KATA:1,2017-12-01T19:30:00Z,30.2583,-88.2131,17.65,1111122 
DISL,ioos:station:DISL:KATA:1,2017-12-01T20:00:00Z,30.2583,-88.2131,18.0,11111222 
DISL,ioos:station:DISL:KATA:1,2017-12-01T20:30:00Z,30.2583,-88.2131,18.02,1111122 
DISL,ioos:station:DISL:KATA:1,2017-12-01T21:00:00Z,30.2583,-88.2131,18.5,11111222 
DISL,ioos:station:DISL:KATA:1,2017-12-01T21:30:00Z,30.2583,-88.2131,18.62,1111122 
DISL,ioos:station:DISL:KATA:1,2017-12-01T22:00:00Z,30.2583,-88.2131,18.9,11111222 
DISL,ioos:station:DISL:KATA:1,2017-12-01T22:30:00Z,30.2583,-88.2131,18.43,1111122 
DISL,ioos:station:DISL:KATA:1,2017-12-01T23:00:00Z,30.2583,-88.2131,18.1,11111222 
DISL,ioos:station:DISL:KATA:1,2017-12-01T23:30:00Z,30.2583,-88.2131,17.86,1111122 
DISL,ioos:station:DISL:KATA:1,2017-12-02T00:00:00Z,30.2583,-88.2131,17.8,11111222 
DISL,ioos:station:DISL:KATA:1,2017-12-02T00:30:00Z,30.2583,-88.2131,17.53,1111122 
DISL,ioos:station:DISL:KATA:1,2017-12-02T01:00:00Z,30.2583,-88.2131,17.3,11111222 
DISL,ioos:station:DISL:KATA:1,2017-12-02T01:30:00Z,30.2583,-88.2131,16.72,1111122 
DISL,ioos:station:DISL:KATA:1,2017-12-02T02:00:00Z,30.2583,-88.2131,16.1,11111222 
DISL,ioos:station:DISL:KATA:1,2017-12-02T02:30:00Z,30.2583,-88.2131,15.63,1111122 
DISL,ioos:station:DISL:KATA:1,2017-12-02T03:00:00Z,30.2583,-88.2131,15.8,11111222 
DISL,ioos:station:DISL:KATA:1,2017-12-02T03:30:00Z,30.2583,-88.2131,15.4,1111122 
DISL,ioos:station:DISL:KATA:1,2017-12-02T04:00:00Z,30.2583,-88.2131,15.3,11111222 
DISL,ioos:station:DISL:KATA:1,2017-12-02T04:30:00Z,30.2583,-88.2131,14.89,1111122 
DISL,ioos:station:DISL:KATA:1,2017-12-02T05:00:00Z,30.2583,-88.2131,15.1,11111222 
DISL,ioos:station:DISL:KATA:1,2017-12-02T05:30:00Z,30.2583,-88.2131,14.82,1111122 
DISL,ioos:station:DISL:KATA:1,2017-12-02T06:00:00Z,30.2583,-88.2131,14.8,11111222 
DISL,ioos:station:DISL:KATA:1,2017-12-02T06:30:00Z,30.2583,-88.2131,14.72,1111122 
DISL,ioos:station:DISL:KATA:1,2017-12-02T07:00:00Z,30.2583,-88.2131,14.72,1111122 
DISL,ioos:station:DISL:KATA:1,2017-12-02T07:30:00Z,30.2583,-88.2131,14.5,11111222 
DISL,ioos:station:DISL:KATA:1,2017-12-02T08:00:00Z,30.2583,-88.2131,14.7,11111222 
DISL,ioos:station:DISL:KATA:1,2017-12-02T08:30:00Z,30.2583,-88.2131,14.75,1111122 
DISL,ioos:station:DISL:KATA:1,2017-12-02T09:00:00Z,30.2583,-88.2131,14.9,11111222 
DISL,ioos:station:DISL:KATA:1,2017-12-02T09:30:00Z,30.2583,-88.2131,14.75,1111122 
DISL,ioos:station:DISL:KATA:1,2017-12-02T10:00:00Z,30.2583,-88.2131,14.8,11111222 
DISL,ioos:station:DISL:KATA:1,2017-12-02T10:30:00Z,30.2583,-88.2131,14.72,1111122 
DISL,ioos:station:DISL:KATA:1,2017-12-02T11:00:00Z,30.2583,-88.2131,14.79,1111122 
DISL,ioos:station:DISL:KATA:1,2017-12-02T11:30:00Z,30.2583,-88.2131,14.9,11111222 
DISL,ioos:station:DISL:KATA:1,2017-12-02T12:00:00Z,30.2583,-88.2131,14.9,11111222 
DISL,ioos:station:DISL:KATA:1,2017-12-02T12:30:00Z,30.2583,-88.2131,14.92,1111122 
DISL,ioos:station:DISL:KATA:1,2017-12-02T13:00:00Z,30.2583,-88.2131,15.0,11111222 
DISL,ioos:station:DISL:KATA:1,2017-12-02T13:30:00Z,30.2583,-88.2131,15.13,1111122 
DISL,ioos:station:DISL:KATA:1,2017-12-02T14:00:00Z,30.2583,-88.2131,15.2,11111222 
DISL,ioos:station:DISL:KATA:1,2017-12-02T14:30:00Z,30.2583,-88.2131,15.5,1111122 
DISL,ioos:station:DISL:KATA:1,2017-12-02T15:00:00Z,30.2583,-88.2131,15.9,11111222 
DISL,ioos:station:DISL:KATA:1,2017-12-02T15:30:00Z,30.2583,-88.2131,16.38,1111122 
DISL,ioos:station:DISL:KATA:1,2017-12-02T16:00:00Z,30.2583,-88.2131,16.6,11111222 
DISL,ioos:station:DISL:KATA:1,2017-12-02T16:30:00Z,30.2583,-88.2131,16.6,1111122 
DISL,ioos:station:DISL:KATA:1,2017-12-02T17:00:00Z,30.2583,-88.2131,16.7,11111222 
DISL,ioos:station:DISL:KATA:1,2017-12-02T17:30:00Z,30.2583,-88.2131,16.6,1111122 
DISL,ioos:station:DISL:KATA:1,2017-12-02T18:00:00Z,30.2583,-88.2131,17.1,11111222 
DISL,ioos:station:DISL:KATA:1,2017-12-02T18:30:00Z,30.2583,-88.2131,17.35,1111122 
DISL,ioos:station:DISL:KATA:1,2017-12-02T19:00:00Z,30.2583,-88.2131,17.2,11111222 
DISL,ioos:station:DISL:KATA:1,2017-12-02T19:30:00Z,30.2583,-88.2131,17.72,1111122 
DISL,ioos:station:DISL:KATA:1,2017-12-02T20:00:00Z,30.2583,-88.2131,17.7,11111222 
DISL,ioos:station:DISL:KATA:1,2017-12-02T20:30:00Z,30.2583,-88.2131,17.92,1111122 
DISL,ioos:station:DISL:KATA:1,2017-12-02T21:00:00Z,30.2583,-88.2131,18.3,11111222 
DISL,ioos:station:DISL:KATA:1,2017-12-02T21:30:00Z,30.2583,-88.2131,18.5,1111122 
DISL,ioos:station:DISL:KATA:1,2017-12-02T22:00:00Z,30.2583,-88.2131,18.4,11111222 
DISL,ioos:station:DISL:KATA:1,2017-12-02T22:30:00Z,30.2583,-88.2131,18.4,1111122 
DISL,ioos:station:DISL:KATA:1,2017-12-02T23:00:00Z,30.2583,-88.2131,18.0,11111222 
DISL,ioos:station:DISL:KATA:1,2017-12-02T23:30:00Z,30.2583,-88.2131,17.86,1111122 
DISL,ioos:station:DISL:KATA:1,2017-12-03T00:00:00Z,30.2583,-88.2131,17.8,11111222 
DISL,ioos:station:DISL:KATA:1,2017-12-03T00:30:00Z,30.2583,-88.2131,17.74,1111122 
DISL,ioos:station:DISL:KATA:1,2017-12-03T01:00:00Z,30.2583,-88.2131,17.7,11111222 
DISL,ioos:station:DISL:KATA:1,2017-12-03T01:30:00Z,30.2583,-88.2131,17.67,1111122 
DISL,ioos:station:DISL:KATA:1,2017-12-03T02:00:00Z,30.2583,-88.2131,17.6,11111222 
DISL,ioos:station:DISL:KATA:1,2017-12-03T02:30:00Z,30.2583,-88.2131,17.57,1111122 
DISL,ioos:station:DISL:KATA:1,2017-12-03T03:00:00Z,30.2583,-88.2131,17.5,11111222 
DISL,ioos:station:DISL:KATA:1,2017-12-03T03:30:00Z,30.2583,-88.2131,17.33,1111122 
DISL,ioos:station:DISL:KATA:1,2017-12-03T04:00:00Z,30.2583,-88.2131,17.3,11111222 
DISL,ioos:station:DISL:KATA:1,2017-12-03T04:30:00Z,30.2583,-88.2131,17.13,1111122 
DISL,ioos:station:DISL:KATA:1,2017-12-03T05:00:00Z,30.2583,-88.2131,16.7,11111222 
DISL,ioos:station:DISL:KATA:1,2017-12-03T05:30:00Z,30.2583,-88.2131,16.79,1111122 
DISL,ioos:station:DISL:KATA:1,2017-12-03T06:00:00Z,30.2583,-88.2131,16.5,11111222 
DISL,ioos:station:DISL:KATA:1,2017-12-03T06:30:00Z,30.2583,-88.2131,16.21,1111122 
DISL,ioos:station:DISL:KATA:1,2017-12-03T07:00:00Z,30.2583,-88.2131,15.9,11111222 
DISL,ioos:station:DISL:KATA:1,2017-12-03T07:30:00Z,30.2583,-88.2131,16.08,1111122 
DISL,ioos:station:DISL:KATA:1,2017-12-03T08:00:00Z,30.2583,-88.2131,15.5,11111222 
DISL,ioos:station:DISL:KATA:1,2017-12-03T08:30:00Z,30.2583,-88.2131,15.33,1111122 
DISL,ioos:station:DISL:KATA:1,2017-12-03T09:00:00Z,30.2583,-88.2131,15.3,11111222 
DISL,ioos:station:DISL:KATA:1,2017-12-03T09:30:00Z,30.2583,-88.2131,14.99,1111122 
DISL,ioos:station:DISL:KATA:1,2017-12-03T10:00:00Z,30.2583,-88.2131,15.0,11111222 
DISL,ioos:station:DISL:KATA:1,2017-12-03T10:30:00Z,30.2583,-88.2131,15.23,1111122 
DISL,ioos:station:DISL:KATA:1,2017-12-03T11:00:00Z,30.2583,-88.2131,15.3,11111222 
DISL,ioos:station:DISL:KATA:1,2017-12-03T11:30:00Z,30.2583,-88.2131,15.67,1111122 
DISL,ioos:station:DISL:KATA:1,2017-12-03T12:00:00Z,30.2583,-88.2131,15.3,11111222 
DISL,ioos:station:DISL:KATA:1,2017-12-03T12:30:00Z,30.2583,-88.2131,15.09,1111122 
DISL,ioos:station:DISL:KATA:1,2017-12-03T13:00:00Z,30.2583,-88.2131,14.8,11111222 
DISL,ioos:station:DISL:KATA:1,2017-12-03T13:30:00Z,30.2583,-88.2131,14.68,1111122 
DISL,ioos:station:DISL:KATA:1,2017-12-03T14:00:00Z,30.2583,-88.2131,14.7,11111222 
DISL,ioos:station:DISL:KATA:1,2017-12-03T14:30:00Z,30.2583,-88.2131,15.09,1111122 
DISL,ioos:station:DISL:KATA:1,2017-12-03T15:00:00Z,30.2583,-88.2131,15.1,11111222 
DISL,ioos:station:DISL:KATA:1,2017-12-03T15:30:00Z,30.2583,-88.2131,15.47,1111122 
DISL,ioos:station:DISL:KATA:1,2017-12-03T16:00:00Z,30.2583,-88.2131,15.5,11111222 
DISL,ioos:station:DISL:KATA:1,2017-12-03T16:30:00Z,30.2583,-88.2131,15.66,1111122 
DISL,ioos:station:DISL:KATA:1,2017-12-03T17:00:00Z,30.2583,-88.2131,15.7,11111222 
DISL,ioos:station:DISL:KATA:1,2017-12-03T17:30:00Z,30.2583,-88.2131,15.79,1111122 
DISL,ioos:station:DISL:KATA:1,2017-12-03T18:00:00Z,30.2583,-88.2131,16.1,11111222 
DISL,ioos:station:DISL:KATA:1,2017-12-03T18:30:00Z,30.2583,-88.2131,16.57,1111122 
DISL,ioos:station:DISL:KATA:1,2017-12-03T19:00:00Z,30.2583,-88.2131,17.1,11111222 
DISL,ioos:station:DISL:KATA:1,2017-12-03T19:30:00Z,30.2583,-88.2131,17.28,1111122 
DISL,ioos:station:DISL:KATA:1,2017-12-03T20:00:00Z,30.2583,-88.2131,17.7,11111222 
DISL,ioos:station:DISL:KATA:1,2017-12-03T20:30:00Z,30.2583,-88.2131,17.62,1111122 
DISL,ioos:station:DISL:KATA:1,2017-12-03T21:00:00Z,30.2583,-88.2131,18.3,11111222 
DISL,ioos:station:DISL:KATA:1,2017-12-03T21:30:00Z,30.2583,-88.2131,18.67,1111122 
DISL,ioos:station:DISL:KATA:1,2017-12-03T22:00:00Z,30.2583,-88.2131,18.4,11111222 
DISL,ioos:station:DISL:KATA:1,2017-12-03T22:30:00Z,30.2583,-88.2131,18.5,1111122 
DISL,ioos:station:DISL:KATA:1,2017-12-03T23:00:00Z,30.2583,-88.2131,18.4,11111222 
DISL,ioos:station:DISL:KATA:1,2017-12-03T23:30:00Z,30.2583,-88.2131,18.33,1111122 
DISL,ioos:station:DISL:KATA:1,2017-12-04T00:00:00Z,30.2583,-88.2131,18.2,11111222 
DISL,ioos:station:DISL:KATA:1,2017-12-04T00:30:00Z,30.2583,-88.2131,18.21,1111122 
DISL,ioos:station:DISL:KATA:1,2017-12-04T01:00:00Z,30.2583,-88.2131,18.1,11111222 
DISL,ioos:station:DISL:KATA:1,2017-12-04T01:30:00Z,30.2583,-88.2131,17.91,1111122 
DISL,ioos:station:DISL:KATA:1,2017-12-04T02:00:00Z,30.2583,-88.2131,17.91,1111122 
DISL,ioos:station:DISL:KATA:1,2017-12-04T02:30:00Z,30.2583,-88.2131,17.8,11111222 
DISL,ioos:station:DISL:KATA:1,2017-12-04T03:00:00Z,30.2583,-88.2131,17.5,11111222 
DISL,ioos:station:DISL:KATA:1,2017-12-04T03:30:00Z,30.2583,-88.2131,17.74,1111122 
DISL,ioos:station:DISL:KATA:1,2017-12-04T04:00:00Z,30.2583,-88.2131,17.9,11111222 
DISL,ioos:station:DISL:KATA:1,2017-12-04T04:30:00Z,30.2583,-88.2131,17.67,1111122 
DISL,ioos:station:DISL:KATA:1,2017-12-04T05:00:00Z,30.2583,-88.2131,17.7,11111222 
DISL,ioos:station:DISL:KATA:1,2017-12-04T05:30:00Z,30.2583,-88.2131,17.71,1111122 
DISL,ioos:station:DISL:KATA:1,2017-12-04T06:00:00Z,30.2583,-88.2131,17.5,11111222 
DISL,ioos:station:DISL:KATA:1,2017-12-04T06:30:00Z,30.2583,-88.2131,17.37,1111122 
DISL,ioos:station:DISL:KATA:1,2017-12-04T07:00:00Z,30.2583,-88.2131,17.5,11111222 
DISL,ioos:station:DISL:KATA:1,2017-12-04T07:30:00Z,30.2583,-88.2131,17.54,1111122 
DISL,ioos:station:DISL:KATA:1,2017-12-04T08:00:00Z,30.2583,-88.2131,17.5,11111222 
DISL,ioos:station:DISL:KATA:1,2017-12-04T08:30:00Z,30.2583,-88.2131,17.2,1111122 
DISL,ioos:station:DISL:KATA:1,2017-12-04T09:00:00Z,30.2583,-88.2131,17.2,11111222 
DISL,ioos:station:DISL:KATA:1,2017-12-04T09:30:00Z,30.2583,-88.2131,17.26,1111122 
DISL,ioos:station:DISL:KATA:1,2017-12-04T10:00:00Z,30.2583,-88.2131,17.3,11111222 
DISL,ioos:station:DISL:KATA:1,2017-12-04T10:30:00Z,30.2583,-88.2131,17.4,1111122 
DISL,ioos:station:DISL:KATA:1,2017-12-04T11:00:00Z,30.2583,-88.2131,17.4,11111222 
DISL,ioos:station:DISL:KATA:1,2017-12-04T11:30:00Z,30.2583,-88.2131,17.47,1111122 
DISL,ioos:station:DISL:KATA:1,2017-12-04T12:00:00Z,30.2583,-88.2131,17.5,11111222 
DISL,ioos:station:DISL:KATA:1,2017-12-04T12:30:00Z,30.2583,-88.2131,17.4,1111122 
DISL,ioos:station:DISL:KATA:1,2017-12-04T13:00:00Z,30.2583,-88.2131,17.5,11111222 
DISL,ioos:station:DISL:KATA:1,2017-12-04T13:30:00Z,30.2583,-88.2131,17.77,1111122 
DISL,ioos:station:DISL:KATA:1,2017-12-04T14:00:00Z,30.2583,-88.2131,17.9,11111222 
DISL,ioos:station:DISL:KATA:1,2017-12-04T14:30:00Z,30.2583,-88.2131,17.86,1111122 
DISL,ioos:station:DISL:KATA:1,2017-12-04T15:00:00Z,30.2583,-88.2131,18.2,11111222 
DISL,ioos:station:DISL:KATA:1,2017-12-04T15:30:00Z,30.2583,-88.2131,18.12,1111122 
DISL,ioos:station:DISL:KATA:1,2017-12-04T16:00:00Z,30.2583,-88.2131,18.5,11111222 
DISL,ioos:station:DISL:KATA:1,2017-12-04T16:30:00Z,30.2583,-88.2131,18.49,1111122 
DISL,ioos:station:DISL:KATA:1,2017-12-04T17:00:00Z,30.2583,-88.2131,18.8,11111222 
DISL,ioos:station:DISL:KATA:1,2017-12-04T17:30:00Z,30.2583,-88.2131,19.71,1111122 
DISL,ioos:station:DISL:KATA:1,2017-12-04T18:00:00Z,30.2583,-88.2131,19.8,11111222 
DISL,ioos:station:DISL:KATA:1,2017-12-04T18:30:00Z,30.2583,-88.2131,20.07,1111122 
DISL,ioos:station:DISL:KATA:1,2017-12-04T19:00:00Z,30.2583,-88.2131,19.8,11111222 
DISL,ioos:station:DISL:KATA:1,2017-12-04T19:30:00Z,30.2583,-88.2131,19.8,1111122 
DISL,ioos:station:DISL:KATA:1,2017-12-04T20:00:00Z,30.2583,-88.2131,19.8,11111222 
DISL,ioos:station:DISL:KATA:1,2017-12-04T20:30:00Z,30.2583,-88.2131,19.77,1111122 
DISL,ioos:station:DISL:KATA:1,2017-12-04T21:00:00Z,30.2583,-88.2131,19.9,11111222 
DISL,ioos:station:DISL:KATA:1,2017-12-04T21:30:00Z,30.2583,-88.2131,19.75,1111122 
DISL,ioos:station:DISL:KATA:1,2017-12-04T22:00:00Z,30.2583,-88.2131,20.0,11111222 
DISL,ioos:station:DISL:KATA:1,2017-12-04T22:30:00Z,30.2583,-88.2131,19.89,1111122 
DISL,ioos:station:DISL:KATA:1,2017-12-04T23:00:00Z,30.2583,-88.2131,19.7,11111222 
DISL,ioos:station:DISL:KATA:1,2017-12-04T23:30:00Z,30.2583,-88.2131,19.99,1111122 
DISL,ioos:station:DISL:KATA:1,2017-12-05T00:00:00Z,30.2583,-88.2131,19.9,11111222 
DISL,ioos:station:DISL:KATA:1,2017-12-05T00:30:00Z,30.2583,-88.2131,19.82,1111122 
DISL,ioos:station:DISL:KATA:1,2017-12-05T01:00:00Z,30.2583,-88.2131,20.0,11111222 
DISL,ioos:station:DISL:KATA:1,2017-12-05T01:30:00Z,30.2583,-88.2131,19.59,1111122 
DISL,ioos:station:DISL:KATA:1,2017-12-05T02:00:00Z,30.2583,-88.2131,19.5,11111222 
DISL,ioos:station:DISL:KATA:1,2017-12-05T02:30:00Z,30.2583,-88.2131,19.45,1111122 
DISL,ioos:station:DISL:KATA:1,2017-12-05T03:00:00Z,30.2583,-88.2131,19.5,11111222 
DISL,ioos:station:DISL:KATA:1,2017-12-05T03:30:00Z,30.2583,-88.2131,19.38,1111122 
DISL,ioos:station:DISL:KATA:1,2017-12-05T04:00:00Z,30.2583,-88.2131,19.5,11111222 
DISL,ioos:station:DISL:KATA:1,2017-12-05T04:30:00Z,30.2583,-88.2131,19.93,1111122 
DISL,ioos:station:DISL:KATA:1,2017-12-05T05:00:00Z,30.2583,-88.2131,19.9,11111222 
DISL,ioos:station:DISL:KATA:1,2017-12-05T05:30:00Z,30.2583,-88.2131,20.06,1111122 
DISL,ioos:station:DISL:KATA:1,2017-12-05T06:00:00Z,30.2583,-88.2131,20.1,11111222 
DISL,ioos:station:DISL:KATA:1,2017-12-05T06:30:00Z,30.2583,-88.2131,20.43,1111122 
DISL,ioos:station:DISL:KATA:1,2017-12-05T07:00:00Z,30.2583,-88.2131,20.1,11111222 
DISL,ioos:station:DISL:KATA:1,2017-12-05T07:30:00Z,30.2583,-88.2131,20.23,1111122 
DISL,ioos:station:DISL:KATA:1,2017-12-05T08:00:00Z,30.2583,-88.2131,20.2,11111222 
DISL,ioos:station:DISL:KATA:1,2017-12-05T08:30:00Z,30.2583,-88.2131,19.82,1111122 
DISL,ioos:station:DISL:KATA:1,2017-12-05T09:00:00Z,30.2583,-88.2131,19.9,11111222 
DISL,ioos:station:DISL:KATA:1,2017-12-05T09:30:00Z,30.2583,-88.2131,19.96,1111122 
DISL,ioos:station:DISL:KATA:1,2017-12-05T10:00:00Z,30.2583,-88.2131,19.9,11111222 
DISL,ioos:station:DISL:KATA:1,2017-12-05T10:30:00Z,30.2583,-88.2131,20.23,1111122 
DISL,ioos:station:DISL:KATA:1,2017-12-05T11:00:00Z,30.2583,-88.2131,20.3,11111222 
DISL,ioos:station:DISL:KATA:1,2017-12-05T11:30:00Z,30.2583,-88.2131,20.26,1111122 
DISL,ioos:station:DISL:KATA:1,2017-12-05T12:00:00Z,30.2583,-88.2131,20.1,11111222 
DISL,ioos:station:DISL:KATA:1,2017-12-05T12:30:00Z,30.2583,-88.2131,20.13,1111122 
DISL,ioos:station:DISL:KATA:1,2017-12-05T13:00:00Z,30.2583,-88.2131,20.3,11111222 
DISL,ioos:station:DISL:KATA:1,2017-12-05T13:30:00Z,30.2583,-88.2131,20.26,1111122 
DISL,ioos:station:DISL:KATA:1,2017-12-05T14:00:00Z,30.2583,-88.2131,20.4,11111222 
DISL,ioos:station:DISL:KATA:1,2017-12-05T14:30:00Z,30.2583,-88.2131,20.67,1111122 
DISL,ioos:station:DISL:KATA:1,2017-12-05T15:00:00Z,30.2583,-88.2131,20.9,11111222 
DISL,ioos:station:DISL:KATA:1,2017-12-05T15:30:00Z,30.2583,-88.2131,21.26,1111122 
DISL,ioos:station:DISL:KATA:1,2017-12-05T16:00:00Z,30.2583,-88.2131,21.2,11111222 
DISL,ioos:station:DISL:KATA:1,2017-12-05T16:30:00Z,30.2583,-88.2131,21.6,1111122 
DISL,ioos:station:DISL:KATA:1,2017-12-05T17:00:00Z,30.2583,-88.2131,21.1,11111222 
DISL,ioos:station:DISL:KATA:1,2017-12-05T17:30:00Z,30.2583,-88.2131,21.23,1111122 
DISL,ioos:station:DISL:KATA:1,2017-12-05T18:00:00Z,30.2583,-88.2131,21.2,11111222 
DISL,ioos:station:DISL:KATA:1,2017-12-05T18:30:00Z,30.2583,-88.2131,21.09,1111122 
DISL,ioos:station:DISL:KATA:1,2017-12-05T19:00:00Z,30.2583,-88.2131,21.2,11111222 
DISL,ioos:station:DISL:KATA:1,2017-12-05T19:30:00Z,30.2583,-88.2131,20.92,1111122 
DISL,ioos:station:DISL:KATA:1,2017-12-05T20:00:00Z,30.2583,-88.2131,21.0,11111222 
DISL,ioos:station:DISL:KATA:1,2017-12-05T20:30:00Z,30.2583,-88.2131,21.09,1111122 
DISL,ioos:station:DISL:KATA:1,2017-12-05T21:00:00Z,30.2583,-88.2131,21.1,11111222 
DISL,ioos:station:DISL:KATA:1,2017-12-05T21:30:00Z,30.2583,-88.2131,20.99,1111122 
DISL,ioos:station:DISL:KATA:1,2017-12-05T22:00:00Z,30.2583,-88.2131,21.0,11111222 
DISL,ioos:station:DISL:KATA:1,2017-12-05T22:30:00Z,30.2583,-88.2131,20.85,1111122 
DISL,ioos:station:DISL:KATA:1,2017-12-05T23:00:00Z,30.2583,-88.2131,20.6,11111222 
DISL,ioos:station:DISL:KATA:1,2017-12-05T23:30:00Z,30.2583,-88.2131,20.36,1111122 
DISL,ioos:station:DISL:KATA:1,2017-12-06T00:00:00Z,30.2583,-88.2131,20.5,11111222 
DISL,ioos:station:DISL:KATA:1,2017-12-06T00:30:00Z,30.2583,-88.2131,20.5,1111122 
DISL,ioos:station:DISL:KATA:1,2017-12-06T01:00:00Z,30.2583,-88.2131,19.3,11111222 
DISL,ioos:station:DISL:KATA:1,2017-12-06T01:30:00Z,30.2583,-88.2131,19.14,1111122 
DISL,ioos:station:DISL:KATA:1,2017-12-06T02:00:00Z,30.2583,-88.2131,19.1,11111222 
DISL,ioos:station:DISL:KATA:1,2017-12-06T02:30:00Z,30.2583,-88.2131,19.04,1111122 
DISL,ioos:station:DISL:KATA:1,2017-12-06T03:00:00Z,30.2583,-88.2131,19.1,11111222 
DISL,ioos:station:DISL:KATA:1,2017-12-06T03:30:00Z,30.2583,-88.2131,19.14,1111122 
DISL,ioos:station:DISL:KATA:1,2017-12-06T04:00:00Z,30.2583,-88.2131,19.0,11111222 
DISL,ioos:station:DISL:KATA:1,2017-12-06T04:30:00Z,30.2583,-88.2131,17.45,1111122 
DISL,ioos:station:DISL:KATA:1,2017-12-06T05:00:00Z,30.2583,-88.2131,17.1,11111222 
DISL,ioos:station:DISL:KATA:1,2017-12-06T05:30:00Z,30.2583,-88.2131,16.92,1111122 
DISL,ioos:station:DISL:KATA:1,2017-12-06T06:00:00Z,30.2583,-88.2131,15.8,11111222 
DISL,ioos:station:DISL:KATA:1,2017-12-06T06:30:00Z,30.2583,-88.2131,15.13,1111122 
DISL,ioos:station:DISL:KATA:1,2017-12-06T07:00:00Z,30.2583,-88.2131,14.6,11111222 
DISL,ioos:station:DISL:KATA:1,2017-12-06T07:30:00Z,30.2583,-88.2131,14.65,1111122 
DISL,ioos:station:DISL:KATA:1,2017-12-06T08:00:00Z,30.2583,-88.2131,14.1,11111222 
DISL,ioos:station:DISL:KATA:1,2017-12-06T08:30:00Z,30.2583,-88.2131,13.67,1111122 
DISL,ioos:station:DISL:KATA:1,2017-12-06T09:00:00Z,30.2583,-88.2131,13.1,11111222 
DISL,ioos:station:DISL:KATA:1,2017-12-06T09:30:00Z,30.2583,-88.2131,11.97,1111122 
DISL,ioos:station:DISL:KATA:1,2017-12-06T10:00:00Z,30.2583,-88.2131,11.3,11111222 
DISL,ioos:station:DISL:KATA:1,2017-12-06T10:30:00Z,30.2583,-88.2131,10.97,1111122 
DISL,ioos:station:DISL:KATA:1,2017-12-06T11:00:00Z,30.2583,-88.2131,10.6,11111222 
DISL,ioos:station:DISL:KATA:1,2017-12-06T11:30:00Z,30.2583,-88.2131,10.39,1111122 
DISL,ioos:station:DISL:KATA:1,2017-12-06T12:00:00Z,30.2583,-88.2131,10.4,11111222 
DISL,ioos:station:DISL:KATA:1,2017-12-06T12:30:00Z,30.2583,-88.2131,10.08,1111122 
DISL,ioos:station:DISL:KATA:1,2017-12-06T13:00:00Z,30.2583,-88.2131,10.1,11111222 
DISL,ioos:station:DISL:KATA:1,2017-12-06T13:30:00Z,30.2583,-88.2131,9.64,1111122 
DISL,ioos:station:DISL:KATA:1,2017-12-06T14:00:00Z,30.2583,-88.2131,9.3,11111222 
DISL,ioos:station:DISL:KATA:1,2017-12-06T14:30:00Z,30.2583,-88.2131,9.45,1111122 
DISL,ioos:station:DISL:KATA:1,2017-12-06T15:00:00Z,30.2583,-88.2131,9.0,11111222 
DISL,ioos:station:DISL:KATA:1,2017-12-06T15:30:00Z,30.2583,-88.2131,8.57,1111122 
DISL,ioos:station:DISL:KATA:1,2017-12-06T16:00:00Z,30.2583,-88.2131,8.7,11111222 
DISL,ioos:station:DISL:KATA:1,2017-12-06T16:30:00Z,30.2583,-88.2131,8.47,1111122 
DISL,ioos:station:DISL:KATA:1,2017-12-06T17:00:00Z,30.2583,-88.2131,8.1,11111222 
DISL,ioos:station:DISL:KATA:1,2017-12-06T17:30:00Z,30.2583,-88.2131,7.826,1111122 
DISL,ioos:station:DISL:KATA:1,2017-12-06T18:00:00Z,30.2583,-88.2131,8.1,11111222 
DISL,ioos:station:DISL:KATA:1,2017-12-06T18:30:00Z,30.2583,-88.2131,8.4,1111122 
DISL,ioos:station:DISL:KATA:1,2017-12-06T19:00:00Z,30.2583,-88.2131,8.5,11111222 
DISL,ioos:station:DISL:KATA:1,2017-12-06T19:30:00Z,30.2583,-88.2131,8.64,1111122 
DISL,ioos:station:DISL:KATA:1,2017-12-06T20:00:00Z,30.2583,-88.2131,9.3,11111222 
DISL,ioos:station:DISL:KATA:1,2017-12-06T20:30:00Z,30.2583,-88.2131,9.8,1111122 
DISL,ioos:station:DISL:KATA:1,2017-12-06T21:00:00Z,30.2583,-88.2131,8.7,11111222 
DISL,ioos:station:DISL:KATA:1,2017-12-06T21:30:00Z,30.2583,-88.2131,8.1,1111122 
DISL,ioos:station:DISL:KATA:1,2017-12-06T22:00:00Z,30.2583,-88.2131,8.0,11111222 
DISL,ioos:station:DISL:KATA:1,2017-12-06T22:30:00Z,30.2583,-88.2131,8.06,1111122 
DISL,ioos:station:DISL:KATA:1,2017-12-06T23:00:00Z,30.2583,-88.2131,7.8,11111222 
DISL,ioos:station:DISL:KATA:1,2017-12-06T23:30:00Z,30.2583,-88.2131,7.86,1111122 